Temperature
14 14 15 16 13 11 13 14 16 17 17 18 18 18 16 16 16 15 15 16 16 16 16 16 16 16 17 17 17 17 17 17 17 17 17 17 17 17 17 17 17 17 17 16 16 16 16 16 16
14 14 15 15 11 12 13 14 15 16 18 18 18 17 16 16 15 15 15 16 16 16 16 16 16 16 16 16 16 17 17 17 17 17 17 17 17 17 17 17 16 16 16 16 16 16 16 16 16
14 14 15 11 11 12 14 15 15 17 18 18 17 16 16 15 15 15 15 15 16 16 16 16 16 16 16 16 16 16 16 16 16 16 16 16 16 16 16 16 16 16 16 16 16 16 16 16 15
14 14 14 11 13 13 14 15 15 16 18 17 16 15 15 14 14 14 15 15 16 16 16 16 16 16 16 16 16 16 16 16 16 16 16 16 16 16 16 16 16 16 16 16 16 16 16 16 15
14 14 11 11 13 13 14 15 16 15 16 16 16 14 14 14 14 15 15 15 15 15 15 15 15 15 16 16 16 16 16 16 16 16 16 16 16 16 16 16 16 16 16 16 16 16 16 16 15
13 11 10 11 13 14 14 15 16 14 15 16 15 13 13 14 14 14 15 15 15 15 15 15 15 15 15 15 15 16 16 16 16 16 16 16 16 16 16 16 16 16 16 16 16 16 16 16 15
12 9 11 11 12 13 14 15 14 14 14 15 15 13 13 13 14 14 14 15 15 15 15 15 15 15 15 15 15 15 16 16 16 16 16 16 16 16 16 16 16 15 15 15 15 15 15 15 15
13 10 12 11 12 13 14 15 14 14 14 15 15 13 13 13 13 14 14 14 14 14 14 14 14 14 14 15 15 15 15 15 15 15 16 16 16 16 16 15 15 15 15 15 15 15 15 15 15
13 9 10 11 12 12 13 13 14 14 14 14 13 13 13 13 13 14 14 14 14 14 14 14 14 14 14 14 14 15 15 15 15 15 15 15 15 15 15 15 15 15 15 15 15 15 15 15 15
11 9 11 11 11 12 12 13 13 13 12 12 12 13 13 13 13 13 13 13 13 13 13 13 13 14 14 14 14 14 14 14 15 15 15 15 15 15 15 15 15 15 15 15 15 15 15 15 15
11 9 11 11 12 12 12 12 12 12 11 12 12 12 12 12 12 12 12 12 12 12 12 13 13 13 13 13 14 14 14 14 14 14 14 14 14 15 15 15 15 15 14 14 14 14 15 15 15
10 10 11 11 12 12 11 11 11 11 11 12 12 12 12 12 12 12 12 12 12 12 12 12 12 13 13 13 13 13 13 14 14 14 14 14 14 14 14 14 14 14 14 14 14 14 14 14 14
9 10 11 11 11 11 11 11 11 11 12 12 12 12 11 11 11 11 11 11 11 11 12 12 12 12 12 13 13 13 13 13 13 13 13 13 14 14 14 14 14 14 14 14 14 14 14 14 14
9 10 10 11 11 11 10 10 10 11 11 11 11 11 11 11 11 11 11 11 11 11 11 11 11 12 12 12 12 12 12 12 13 13 13 13 13 13 13 14 14 14 14 14 14 14 14 14 14
10 9 9 10 10 10 10 9 9 11 11 11 11 10 10 10 10 10 10 10 10 10 10 11 11 11 11 11 11 12 12 12 12 12 12 12 12 13 13 13 13 13 14 14 14 14 14 13 14
9 8 8 9 10 10 10 9 10 11 11 10 10 10 10 10 10 9 9 9 9 9 10 10 10 10 10 11 11 11 11 11 11 12 12 12 12 12 12 13 13 13 13 13 13 13 13 13 13
7 7 8 9 10 9 9 8 9 10 10 10 10 9 9 9 9 9 9 9 9 9 9 9 9 10 10 10 10 10 10 11 11 11 11 11 11 12 12 12 12 12 13 13 13 13 13 13 13
7 8 8 8 9 9 8 8 8 10 10 9 9 9 9 9 8 8 8 8 8 9 9 9 9 9 9 9 10 10 10 10 10 10 10 11 11 11 11 11 12 12 12 12 12 12 12 12 12
8 8 8 8 9 8 8 8 8 9 9 8 8 8 8 8 8 8 8 8 8 8 8 8 8 8 9 9 9 9 9 10 10 10 10 10 10 10 11 11 11 11 11 12 12 12 12 12 12
8 7 7 8 9 8 7 7 7 8 8 8 8 8 8 8 8 8 8 8 8 8 8 8 8 8 8 8 8 8 8 9 9 9 9 9 10 10 10 10 10 10 11 11 11 11 11 11 11
7 7 7 7 7 8 7 7 7 8 8 8 8 8 8 7 7 7 7 7 7 7 7 7 7 7 7 7 7 7 8 8 8 8 8 9 9 9 9 9 9 10 10 10 10 10 10 10 10
7 8 8 8 6 6 7 6 6 7 7 7 7 7 7 7 7 7 7 7 7 6 6 6 6 6 7 7 7 7 7 7 7 7 7 8 8 8 8 8 9 9 9 9 10 10 10 10 10
7 8 7 7 6 6 6 5 6 6 7 6 6 7 7 7 7 7 6 6 6 6 6 6 6 6 6 6 6 6 6 6 6 7 7 7 7 7 7 8 8 8 8 8 9 9 9 9 9
7 7 7 6 5 5 6 5 6 6 7 7 6 7 7 7 7 6 6 6 6 6 6 6 5 5 5 5 5 5 6 6 6 6 6 6 6 7 7 7 7 7 8 8 8 8 8 8 8
7 5 5 5 5 5 6 6 6 7 7 7 7 7 7 7 7 6 6 6 6 6 6 5 5 5 5 5 5 5 5 5 5 5 5 5 6 6 6 6 6 7 7 7 7 7 7 7 7
7 6 5 6 5 5 6 6 6 7 7 8 8 8 7 7 6 6 6 6 6 6 5 5 5 5 5 5 4 4 4 4 4 4 4 4 4 5 5 5 5 6 6 6 6 6 6 6 7
7 6 6 5 5 5 5 6 6 7 7 6 7 7 7 7 6 6 6 6 6 5 5 5 5 5 4 4 4 4 4 4 4 4 4 4 4 4 4 4 4 5 5 5 5 5 5 6 6
7 6 5 5 6 6 6 6 6 7 6 6 5 6 7 7 7 6 6 6 6 5 5 5 5 4 4 4 4 4 3 3 3 3 3 3 3 3 3 4 4 4 4 4 4 4 5 5 5
6 6 6 5 5 5 5 6 7 7 7 6 6 7 7 7 7 6 6 6 6 5 5 5 4 4 4 4 3 3 3 3 3 3 3 3 3 3 3 3 3 3 3 3 3 3 4 4 4
6 6 5 5 5 5 4 6 7 7 7 7 7 8 8 7 7 7 6 6 5 5 5 5 4 4 4 3 3 3 3 3 3 2 2 2 2 2 2 2 2 2 2 2 2 3 3 3 3
Wind_Speed
5 5 3 4 5 5 1 3 1 2 1 1 1 7 8 6 4 6 3 5 3 2 2 4 4 5 5 5 6 6 6 7 7 7 7 7 7 7 7 7 7 7 8 8 9 9 9 10 10
4 2 5 5 5 3 2 3 2 1 3 2 4 6 8 6 4 4 3 6 4 3 3 3 3 4 4 4 4 5 5 5 6 6 6 6 7 7 7 6 7 7 8 8 8 9 9 10 9
3 2 4 5 4 6 5 3 5 2 2 3 5 6 5 4 3 2 4 5 5 5 4 3 3 3 3 3 3 3 4 5 5 6 6 6 7 7 7 7 7 7 8 9 9 9 10 9 9
3 4 4 4 3 2 4 3 4 3 5 6 5 6 5 4 2 1 3 4 5 5 5 4 4 3 2 1 1 2 3 4 5 6 7 7 7 8 8 8 8 9 9 9 10 10 10 10 9
4 4 4 3 2 1 1 1 2 5 3 4 5 6 4 4 4 4 5 6 5 5 6 4 4 3 2 2 1 1 3 4 5 6 7 8 8 9 9 9 9 10 10 10 11 11 11 10 9
4 4 4 4 4 1 1 2 3 5 4 4 5 5 2 4 6 6 7 7 6 5 6 6 5 4 3 3 3 3 4 5 5 7 7 8 9 9 10 10 11 11 12 12 12 12 12 11 10
4 4 5 6 5 2 1 2 3 4 5 3 3 4 1 4 5 5 6 7 8 8 8 8 7 6 5 4 4 4 5 6 6 7 7 8 9 10 10 11 12 13 13 13 13 13 13 12 11
4 4 4 3 5 3 1 2 2 4 2 3 4 5 2 3 3 5 7 8 8 8 7 8 9 7 7 6 5 6 6 7 7 7 8 8 9 10 11 11 13 14 14 14 15 14 14 13 13
3 4 3 2 5 3 1 3 4 3 5 5 5 3 2 1 4 7 7 8 8 9 7 7 8 8 8 7 6 7 7 7 7 7 8 8 8 9 9 11 12 14 15 15 15 15 15 14 13
4 3 2 0 3 4 3 4 3 5 6 5 5 4 4 5 7 8 7 7 7 8 8 6 7 8 8 7 7 6 6 6 7 7 7 7 7 8 8 10 12 14 15 16 16 16 15 13 11
4 4 3 2 2 4 4 4 4 5 3 2 3 2 4 6 7 7 6 5 5 6 7 7 7 8 8 7 6 6 6 6 6 6 7 7 6 6 6 6 8 10 12 11 13 13 12 11 10
5 4 3 2 3 4 3 3 4 4 2 2 2 2 5 6 6 6 5 6 6 7 8 8 7 7 8 7 6 5 5 4 5 6 7 5 3 3 4 4 5 6 7 7 8 8 10 11 12
4 3 3 4 6 5 5 4 3 1 1 1 4 5 5 5 4 4 4 5 6 7 8 8 7 7 8 7 6 6 5 5 6 6 6 5 3 3 4 3 4 5 6 6 6 7 8 8 9
4 4 3 3 3 3 4 2 2 2 0 3 4 5 4 4 4 5 6 7 7 7 8 8 8 8 8 6 5 5 6 6 6 6 6 6 4 3 3 4 4 5 7 7 7 8 8 8 8
4 5 4 2 1 1 4 3 2 3 2 3 3 3 3 4 4 4 4 4 5 6 8 9 8 8 8 7 7 7 6 6 6 6 7 7 5 4 3 4 4 5 7 7 7 7 7 7 8
4 4 2 2 1 1 3 2 4 3 3 1 1 2 2 3 4 3 4 4 5 7 8 9 9 9 8 7 7 6 6 6 5 6 7 7 7 5 3 3 4 5 5 5 6 6 7 7 7
4 3 2 1 1 2 2 4 5 2 2 2 1 1 1 2 4 4 4 5 6 7 8 9 9 9 9 8 7 6 6 5 6 7 6 7 7 6 3 3 4 5 4 5 6 6 6 7 7
3 3 2 2 1 2 3 6 6 3 3 4 2 1 1 2 2 3 4 5 6 6 7 8 9 9 9 7 6 5 5 5 6 6 7 8 8 7 4 3 3 3 4 5 5 6 6 6 6
4 4 2 1 1 1 4 7 8 5 3 4 3 2 1 0 1 2 4 5 6 7 8 8 9 9 8 6 6 5 5 5 5 5 8 8 8 8 5 4 3 3 3 4 5 5 6 6 3
5 4 2 2 1 1 3 7 7 5 5 5 6 4 3 1 2 3 5 6 6 7 8 8 8 9 8 6 5 4 4 3 3 5 7 9 8 7 6 4 3 3 3 3 3 3 3 4 3
4 3 2 1 4 3 2 6 4 2 2 3 4 4 3 2 1 2 4 4 5 7 7 8 8 8 8 7 5 5 4 4 4 6 5 7 8 7 6 5 3 3 2 3 3 2 3 4 4
2 0 2 2 3 3 0 3 6 3 2 3 4 4 3 3 1 1 2 4 5 5 6 7 7 7 7 7 6 6 5 5 5 5 5 6 7 7 7 6 5 3 3 3 3 2 2 2 3
1 1 2 1 1 3 1 2 7 2 5 7 6 6 5 4 2 1 1 2 3 4 5 6 6 7 7 7 6 5 5 4 4 5 6 6 6 7 7 6 5 4 3 3 3 2 2 2 3
1 3 4 4 3 3 4 4 6 5 7 6 6 6 6 4 3 2 2 2 2 3 4 5 6 6 7 7 6 5 5 6 6 6 6 6 5 5 7 7 5 4 3 3 3 3 3 2 2
4 4 3 3 2 5 3 4 8 7 6 7 8 8 7 5 4 3 2 2 2 3 4 4 5 5 6 6 6 6 5 5 6 5 5 5 5 5 6 6 5 5 4 4 4 3 3 2 3
1 3 4 3 3 5 3 5 7 4 3 4 5 6 6 5 4 4 4 3 3 3 3 3 4 4 5 5 5 5 5 4 4 5 5 5 5 5 6 6 6 6 6 5 4 3 3 3 3
1 1 3 3 1 3 5 6 6 1 1 3 4 5 6 6 6 5 4 4 3 3 3 2 3 3 4 5 5 5 5 5 5 6 5 4 4 5 5 5 5 5 5 5 4 3 4 4 3
2 3 3 2 1 4 6 5 5 5 7 6 6 7 8 6 6 6 5 4 4 3 3 2 2 2 3 3 4 4 5 5 5 5 5 5 5 5 5 5 5 5 6 6 5 5 5 4 4
3 2 3 2 3 3 4 7 6 7 8 8 9 9 8 8 7 7 6 5 4 3 2 2 2 2 2 3 3 4 4 4 4 4 5 5 5 5 5 5 5 5 6 6 5 6 6 5 5
6 6 5 3 4 4 3 8 5 6 6 7 8 7 7 7 7 6 6 5 4 4 3 2 2 2 2 2 3 3 4 4 4 5 5 5 5 5 5 5 5 6 6 6 6 6 6 6 5
Wind_Direction
340 356 68 59 64 64 187 262 252 98 108 263 63 95 99 80 92 129 229 326 2 81 101 135 136 130 130 140 147 153 162 167 168 165 160 160 158 156 152 152 153 153 150 143 139 137 133 129 125
355 25 61 66 98 122 257 261 170 172 184 145 68 72 74 72 68 83 351 332 6 64 80 96 116 121 130 137 145 162 172 178 181 182 178 178 177 173 170 169 168 168 164 155 148 145 142 140 139
347 72 89 87 124 163 181 215 182 169 56 85 65 55 74 63 55 46 323 329 26 40 53 61 96 97 115 139 153 166 185 192 197 197 196 196 193 192 187 184 181 176 170 164 158 154 153 152 152
54 60 63 92 153 200 176 205 178 121 44 42 85 62 54 19 38 345 328 17 40 27 32 55 72 67 72 92 159 189 205 213 212 213 214 212 210 209 203 195 189 183 178 174 168 165 166 167 167
65 87 89 114 164 212 222 257 99 91 73 41 80 81 49 353 15 23 24 35 41 26 20 34 52 47 35 27 343 259 240 231 230 229 228 227 223 220 214 205 197 192 189 184 180 178 177 179 181
67 83 113 162 165 174 309 342 73 71 63 47 71 85 91 335 19 17 26 28 29 29 19 17 20 21 16 356 330 304 274 256 247 241 239 236 233 228 224 216 205 202 198 194 189 189 188 189 193
112 113 143 153 151 145 320 34 70 86 62 24 76 90 114 351 5 16 32 32 27 23 18 9 4 2 350 334 318 298 289 275 263 257 250 245 240 237 232 225 213 209 207 202 197 195 196 197 201
126 114 120 137 144 167 295 71 68 84 74 12 69 103 125 303 344 25 32 29 22 19 14 7 4 358 346 328 317 307 296 288 276 268 262 254 246 242 237 231 219 214 212 207 202 200 200 201 205
94 85 122 147 155 159 34 77 19 33 66 42 52 100 151 317 30 35 30 21 15 11 2 3 1 355 345 333 323 317 306 295 288 277 268 259 251 244 240 234 226 219 215 211 207 205 204 203 208
79 122 147 172 157 136 79 76 60 55 53 45 48 41 46 47 46 43 31 15 7 358 353 359 358 352 347 337 330 323 314 305 295 281 273 263 251 247 244 237 229 225 219 214 211 208 206 203 207
80 129 134 37 65 94 71 40 29 89 68 102 109 53 41 50 46 44 30 14 359 350 352 351 351 352 349 342 335 326 316 306 301 292 277 265 253 251 248 240 233 227 222 217 217 210 206 202 204
94 69 95 60 49 69 65 56 40 66 159 177 143 93 64 56 47 39 25 8 360 358 351 347 345 346 344 339 333 326 324 316 303 294 288 269 252 245 240 231 228 222 219 214 213 209 207 206 208
90 111 76 77 69 70 70 64 81 66 217 82 69 63 69 60 41 28 21 14 7 359 347 342 340 344 342 339 331 331 324 318 311 304 297 280 257 253 241 234 227 224 222 215 212 211 209 210 213
106 91 77 63 66 52 72 30 74 240 137 71 69 74 72 56 39 23 15 9 4 355 345 339 339 343 341 337 326 320 325 325 323 315 307 298 280 259 250 244 233 226 224 223 217 215 215 217 216
86 75 43 23 95 77 65 3 232 233 105 76 76 82 72 49 40 30 14 5 358 349 345 343 339 346 342 335 328 328 326 329 326 322 317 312 302 280 259 251 245 238 233 225 221 221 219 223 223
67 74 67 292 169 134 101 257 258 228 115 112 112 86 64 36 36 25 17 5 358 354 349 345 346 346 342 335 329 330 332 332 327 322 322 319 308 293 270 258 255 253 241 227 225 221 222 226 227
58 110 149 264 198 139 149 234 259 251 156 175 186 129 82 34 20 13 16 11 5 359 353 351 348 346 340 335 333 336 337 338 335 333 332 328 323 309 287 264 270 263 245 235 234 228 223 229 232
161 148 150 208 239 159 206 244 265 259 194 198 203 180 113 61 9 6 15 11 6 2 358 356 352 349 342 338 339 344 347 345 349 348 343 337 334 327 317 297 293 283 260 250 243 238 232 232 234
124 119 122 245 215 200 230 253 269 258 211 199 197 183 168 204 320 5 11 8 8 5 1 356 354 349 351 349 345 343 342 342 345 347 345 344 341 336 336 320 315 302 274 266 255 238 236 234 227
90 99 66 344 333 254 257 270 270 247 207 194 186 186 192 216 347 358 3 8 7 1 356 354 353 350 351 346 336 325 317 327 336 340 345 348 346 343 341 336 320 314 302 293 285 271 250 238 215
72 129 161 232 347 0 345 305 282 269 183 169 171 173 178 185 257 336 358 357 357 356 351 350 345 347 349 347 347 345 343 338 346 344 343 345 345 347 348 341 328 323 316 301 296 287 269 262 239
96 59 110 73 42 312 359 288 277 248 237 212 201 189 200 227 242 306 340 342 347 343 343 346 344 348 350 353 356 356 355 341 329 328 329 333 346 349 349 347 343 334 325 318 301 295 272 262 265
169 32 52 61 72 329 269 208 278 251 236 232 216 207 213 226 221 232 283 307 326 335 342 345 345 350 352 357 355 353 348 334 325 332 336 337 341 350 350 350 345 339 330 319 311 309 297 271 264
81 38 42 51 62 301 229 187 272 228 217 215 209 209 214 218 216 230 265 299 325 337 344 346 347 348 352 356 358 360 352 344 343 342 338 334 334 338 346 349 348 343 337 327 317 309 299 290 283
61 74 43 3 350 260 236 205 249 244 223 200 198 205 209 209 211 226 252 286 308 323 332 338 345 346 348 352 354 354 353 347 343 336 333 336 338 339 343 346 344 346 343 340 336 335 323 311 299
178 130 148 198 245 286 296 236 255 267 220 183 184 190 197 211 217 224 230 238 260 284 306 325 340 343 345 347 344 346 350 349 343 339 339 339 335 335 342 346 346 347 347 346 340 338 328 326 307
143 173 177 147 272 278 274 277 294 213 186 187 192 198 214 222 223 225 226 225 238 261 279 294 319 329 337 342 341 347 349 349 346 341 338 335 334 340 347 346 347 351 353 349 340 335 333 330 321
167 157 98 131 219 283 288 268 247 238 232 227 221 224 228 228 227 227 224 224 231 241 259 279 288 301 317 338 346 357 348 346 344 346 344 340 337 340 343 348 349 352 355 357 354 344 341 337 329
174 181 166 165 180 201 279 274 226 220 219 219 226 227 225 222 224 225 225 225 226 235 246 266 289 312 327 331 336 342 337 337 343 346 341 337 338 343 344 343 348 352 355 357 356 352 349 346 343
188 193 162 175 237 212 236 271 263 229 226 216 228 231 226 223 221 220 220 219 222 231 241 251 263 285 301 311 328 333 334 340 345 341 336 339 342 346 346 349 353 353 355 355 353 350 349 344 341
Height
1509 1511 1514 1516 1521 1532 1532 1526 1519 1517 1517 1516 1516 1516 1519 1525 1529 1537 1535 1533 1532 1532 1532 1532 1532 1533 1533 1534 1534 1535 1535 1536 1537 1537 1537 1538 1538 1538 1539 1538 1538 1538 1538 1538 1538 1538 1539 1539 1539
1510 1512 1515 1516 1526 1538 1533 1523 1519 1516 1515 1515 1516 1517 1520 1526 1529 1532 1532 1532 1532 1532 1532 1532 1532 1533 1533 1534 1534 1535 1535 1536 1536 1537 1537 1537 1538 1538 1538 1538 1538 1538 1538 1539 1539 1539 1539 1539 1539
1510 1512 1515 1518 1527 1531 1527 1519 1516 1514 1515 1515 1517 1520 1523 1529 1531 1532 1532 1532 1532 1532 1532 1532 1532 1532 1533 1533 1533 1534 1534 1535 1535 1536 1536 1537 1537 1537 1538 1538 1538 1538 1538 1538 1539 1539 1539 1539 1540
1510 1513 1515 1522 1524 1522 1519 1516 1514 1514 1515 1516 1517 1523 1527 1531 1532 1532 1532 1532 1532 1532 1532 1531 1532 1532 1532 1532 1533 1533 1533 1534 1534 1535 1535 1536 1536 1536 1537 1537 1537 1538 1538 1538 1538 1538 1539 1539 1539
1509 1511 1519 1525 1522 1520 1517 1515 1514 1514 1516 1518 1519 1524 1529 1532 1532 1532 1532 1531 1531 1531 1531 1531 1531 1531 1531 1531 1532 1532 1532 1533 1533 1533 1534 1534 1535 1535 1535 1536 1536 1537 1537 1537 1537 1538 1538 1539 1539
1509 1511 1523 1527 1522 1519 1517 1516 1515 1516 1518 1519 1521 1525 1530 1532 1531 1531 1531 1531 1530 1530 1530 1530 1530 1530 1530 1530 1530 1530 1531 1531 1531 1532 1532 1532 1533 1533 1534 1534 1535 1535 1536 1536 1536 1537 1537 1538 1538
1509 1514 1520 1521 1522 1520 1518 1517 1517 1518 1519 1521 1522 1526 1530 1531 1531 1531 1530 1530 1530 1529 1529 1529 1528 1528 1528 1529 1529 1529 1529 1529 1529 1530 1530 1530 1531 1531 1532 1532 1533 1533 1534 1534 1535 1535 1536 1536 1537
1508 1513 1517 1520 1521 1521 1518 1518 1519 1519 1521 1523 1524 1526 1530 1531 1530 1530 1530 1529 1529 1528 1528 1527 1527 1527 1527 1527 1527 1527 1527 1527 1527 1527 1527 1528 1528 1529 1529 1530 1530 1531 1532 1532 1533 1533 1534 1535 1535
1508 1517 1521 1520 1520 1519 1518 1518 1520 1521 1522 1523 1525 1527 1530 1530 1530 1529 1528 1528 1527 1527 1526 1526 1525 1525 1525 1525 1524 1524 1524 1524 1524 1525 1525 1525 1525 1526 1526 1527 1528 1528 1529 1530 1530 1531 1532 1532 1533
1509 1519 1519 1518 1517 1518 1518 1519 1521 1522 1523 1525 1526 1528 1529 1529 1528 1527 1527 1526 1526 1525 1525 1524 1524 1523 1523 1522 1522 1522 1522 1522 1521 1522 1522 1522 1522 1523 1523 1524 1524 1525 1526 1527 1527 1528 1529 1530 1530
1511 1516 1517 1517 1516 1517 1518 1520 1522 1523 1526 1526 1526 1527 1528 1528 1527 1527 1526 1526 1525 1524 1523 1523 1522 1521 1520 1520 1519 1519 1519 1519 1519 1519 1519 1519 1519 1519 1520 1520 1521 1522 1523 1523 1524 1525 1525 1526 1527
1513 1516 1517 1518 1517 1518 1520 1521 1523 1524 1526 1527 1527 1527 1527 1527 1527 1526 1526 1525 1524 1523 1522 1521 1520 1519 1518 1517 1517 1516 1516 1516 1516 1516 1516 1515 1515 1516 1516 1517 1517 1518 1519 1519 1520 1521 1522 1522 1524
1515 1518 1518 1519 1519 1520 1521 1523 1524 1526 1526 1527 1526 1526 1526 1526 1526 1526 1525 1524 1523 1521 1520 1519 1518 1516 1515 1514 1513 1513 1512 1512 1512 1512 1512 1512 1512 1512 1512 1513 1513 1514 1515 1515 1516 1517 1517 1518 1519
1517 1518 1520 1521 1521 1522 1523 1524 1525 1526 1526 1526 1526 1526 1526 1526 1525 1525 1524 1522 1521 1519 1518 1517 1515 1514 1512 1511 1510 1509 1509 1509 1508 1508 1508 1508 1508 1508 1508 1509 1509 1509 1510 1511 1511 1512 1513 1514 1515
1517 1520 1522 1522 1522 1524 1524 1526 1526 1525 1525 1525 1526 1526 1526 1526 1525 1524 1522 1521 1519 1518 1516 1514 1512 1511 1509 1508 1507 1506 1505 1505 1504 1504 1504 1504 1504 1504 1504 1504 1504 1505 1506 1506 1506 1507 1508 1509 1510
1520 1524 1528 1525 1524 1525 1528 1530 1525 1524 1524 1524 1525 1525 1525 1525 1524 1523 1521 1520 1518 1516 1514 1512 1510 1508 1507 1505 1504 1502 1502 1501 1500 1500 1500 1500 1500 1500 1499 1499 1500 1500 1501 1501 1501 1502 1503 1504 1504
1525 1529 1528 1526 1524 1524 1527 1529 1524 1524 1523 1524 1524 1524 1524 1523 1522 1521 1520 1518 1516 1514 1512 1510 1508 1506 1504 1502 1501 1499 1498 1498 1497 1497 1496 1496 1496 1495 1495 1495 1495 1496 1496 1496 1497 1497 1497 1498 1499
1528 1528 1528 1527 1525 1525 1527 1527 1523 1522 1522 1522 1522 1522 1522 1522 1521 1520 1519 1517 1515 1513 1511 1508 1506 1504 1501 1499 1498 1496 1495 1494 1493 1493 1492 1492 1491 1491 1490 1490 1490 1491 1491 1491 1491 1491 1492 1492 1493
1524 1526 1528 1527 1525 1527 1527 1525 1521 1519 1520 1520 1520 1521 1521 1520 1520 1519 1517 1515 1513 1511 1509 1506 1504 1501 1499 1497 1495 1493 1492 1491 1490 1489 1488 1487 1487 1486 1486 1485 1485 1485 1486 1486 1486 1486 1486 1487 1488
1525 1529 1530 1529 1526 1527 1527 1525 1520 1517 1517 1517 1518 1519 1519 1519 1518 1517 1515 1514 1511 1509 1507 1504 1502 1500 1497 1495 1493 1491 1490 1488 1487 1486 1484 1483 1483 1482 1481 1481 1481 1481 1481 1480 1480 1480 1481 1481 1482
1529 1530 1530 1531 1529 1527 1528 1525 1520 1517 1516 1517 1517 1517 1517 1517 1516 1515 1514 1512 1510 1508 1505 1503 1501 1498 1496 1494 1492 1490 1488 1486 1484 1482 1481 1480 1479 1478 1478 1477 1477 1476 1476 1476 1475 1476 1476 1476 1477
1532 1529 1529 1530 1534 1536 1532 1537 1522 1517 1517 1516 1515 1515 1515 1515 1515 1514 1512 1511 1509 1507 1505 1502 1500 1497 1495 1492 1490 1487 1485 1483 1481 1480 1478 1477 1476 1475 1474 1473 1473 1472 1472 1471 1471 1472 1472 1472 1472
1530 1529 1530 1531 1534 1538 1534 1538 1526 1518 1517 1514 1513 1513 1513 1514 1513 1512 1511 1510 1508 1506 1503 1501 1498 1496 1493 1491 1488 1486 1484 1482 1480 1478 1476 1474 1473 1471 1470 1470 1469 1468 1468 1467 1467 1467 1467 1467 1467
1529 1531 1532 1536 1539 1541 1533 1537 1528 1518 1512 1509 1510 1510 1511 1511 1511 1510 1509 1508 1506 1504 1502 1500 1497 1495 1492 1489 1487 1484 1482 1480 1478 1475 1473 1471 1470 1468 1467 1466 1465 1465 1464 1464 1463 1463 1463 1462 1462
1532 1538 1545 1543 1546 1539 1529 1531 1522 1508 1506 1505 1506 1507 1508 1509 1509 1508 1507 1506 1504 1503 1501 1498 1496 1493 1491 1488 1485 1483 1481 1478 1476 1474 1472 1469 1467 1465 1464 1463 1462 1461 1460 1460 1460 1459 1458 1458 1458
1533 1536 1544 1543 1544 1540 1530 1527 1514 1505 1503 1503 1504 1505 1506 1507 1507 1506 1505 1504 1502 1501 1499 1496 1494 1492 1489 1487 1484 1482 1479 1477 1474 1472 1470 1468 1465 1464 1462 1461 1459 1458 1457 1456 1456 1455 1454 1454 1454
1532 1536 1535 1542 1542 1543 1533 1523 1510 1504 1503 1503 1504 1504 1504 1504 1504 1504 1503 1502 1500 1498 1497 1495 1493 1490 1488 1485 1483 1480 1478 1475 1473 1471 1468 1466 1464 1462 1460 1459 1457 1455 1454 1453 1452 1451 1450 1450 1449
1531 1533 1538 1541 1540 1538 1531 1524 1515 1504 1503 1503 1502 1502 1501 1502 1502 1501 1500 1499 1498 1497 1495 1493 1491 1489 1486 1484 1481 1479 1477 1474 1472 1469 1467 1464 1462 1460 1458 1457 1455 1453 1451 1449 1448 1447 1446 1445 1444
1532 1533 1534 1540 1541 1540 1536 1521 1502 1499 1498 1499 1498 1498 1498 1499 1498 1498 1497 1497 1496 1494 1493 1491 1489 1487 1485 1483 1480 1477 1475 1473 1470 1468 1465 1463 1461 1459 1456 1455 1453 1450 1449 1447 1445 1444 1442 1441 1440
1527 1528 1532 1538 1537 1537 1537 1520 1496 1495 1494 1494 1495 1495 1495 1495 1495 1495 1494 1494 1493 1492 1490 1489 1487 1485 1483 1481 1478 1476 1473 1471 1469 1466 1464 1461 1459 1457 1454 1452 1450 1448 1446 1444 1443 1441 1439 1437 1436